Flag for U.S.A. Weather past 2 weeks in Durham, North Carolina, U.S.A.

Now
49 °F

Fog.


Feels Like: 46 °F
Forecast: 47 / 57 °F
Wind: 7 mph from North

Location: Raleigh-Durham International Airport

Current Time: Apr 26, 2015 at 1:08:07 AM

Latest Report: Apr 25, 2015 at 11:51 PM


Visibility: 0 mi

Pressure: 29.66 "Hg

Humidity: 97%

Dew point: 48 °F

Location of DurhamLocation

Historic Weather in Durham — Graph

°F

Durham temperature yesterday

Maximum temperature yesterday: 57 °F (at 10:51 AM)
Minimum temperature yesterday: 45 °F (at 4:51 AM)
Average temperature yesterday: 52 °F

Past Weeks' High & Low Weather Summary

 TemperatureHumidityPressure
High79 °F (Apr 18, 1:51 PM)100% (Apr 25, 5:01 PM)30.36 "Hg (Apr 25, 5:01 PM)
Low39 °F (Apr 24, 5:51 AM)21% (Apr 23, 5:51 PM)29.64 "Hg (Apr 20, 5:51 PM)
Average62 °F68%30.01 "Hg
* Reported Apr 10 11:51 PM — Apr 25 11:51 PM, Durham, Weather by CustomWeather, © 2015

Note: Actual official high and low records may vary slightly from our data, if they occured in-between our weather recording intervals... More about our weather records

Advertising

Durham weather history for previous 24 hours

 ConditionsComfort  
Time TempWeatherWind HumidityBarometerVisibility
11:51 PM
Sat, Apr 25
49 °FFog.7 mph97%29.66 "Hg1 mi
10:51 PM50 °FLight rain. Fog.6 mph96%29.65 "Hg1 mi
9:51 PM51 °FLight rain. Fog.7 mph96%29.65 "Hg1 mi
8:51 PM51 °FLight rain. Fog.5 mph96%29.65 "Hg1 mi
7:51 PM52 °FLight rain. Fog.5 mph97%29.65 "Hg1 mi
7:00 PM52 °FLight rain. Fog.6 mph100%29.68 "Hg1 mi
5:51 PM53 °FLight rain. Fog.5 mph96%29.71 "Hg1 mi
5:01 PM54 °FLight rain. Fog.5 mph100%29.72 "Hg0 mi
3:51 PM56 °FLight rain. Fog.No wind97%29.74 "Hg1 mi
2:51 PM56 °FLight rain. Fog.3 mph97%29.79 "Hg1 mi
1:51 PM56 °FLight rain. Fog.7 mph93%29.82 "Hg1 mi
12:51 PM56 °FLight rain. Fog.8 mph93%29.83 "Hg4 mi
11:51 AM56 °FLight rain. Mostly cloudy.9 mph81%29.89 "Hg7 mi
10:51 AM57 °FMostly cloudy.3 mph64%29.91 "Hg10 mi
9:51 AM55 °FOvercast.No wind69%29.92 "Hg10 mi
8:51 AM53 °FOvercast.No wind72%29.93 "Hg10 mi
7:51 AM52 °FOvercast.3 mph69%29.92 "Hg10 mi
6:51 AM50 °FPassing clouds.No wind77%29.92 "Hg10 mi
5:51 AM49 °FPassing clouds.No wind80%29.91 "Hg10 mi
4:51 AM45 °FPassing clouds.3 mph82%29.90 "Hg10 mi
3:51 AM48 °FPassing clouds.No wind77%29.92 "Hg10 mi
2:51 AM47 °FPassing clouds.No wind74%29.93 "Hg10 mi
1:51 AM48 °FPassing clouds.No wind71%29.93 "Hg10 mi
Weather by CustomWeather, © 2015

See weather overviewHow to use our weather pages